Regional Weather Roundup
Issued by NWS

Home | Current Version | Previous Version | Text Only | Print | Product List | Glossary Off
Versions: 1 2 3 4 5 6 7 8 9 10 11 12 13 14 15 16 17 18 19 20 21 22 23 24 25 26 27 28 29 30 31 32 33 34 35 36 37 38 39 40 41 42 43 44 45 46 47 48 49 50

000
ASUS43 KMKX 250711
RWRWI

WISCONSIN REGIONAL WEATHER ROUNDUP
NATIONAL WEATHER SERVICE MILWAUKEE/SULLIVAN WI
100 AM CST SAT FEB 25 2017

NOTE: "FAIR" INDICATES FEW OR NO CLOUDS BELOW 12,000 FEET WITH NO
SIGNIFICANT WEATHER AND/OR OBSTRUCTIONS TO VISIBILITY.

WIZ001-002-006>008-014>016-023>028-250800-
NORTHWEST WISCONSIN

CITY           SKY/WX    TMP DP  RH WIND       PRES   REMARKS
SUPERIOR ARPT  CLOUDY    15   4  61 N13       29.88F WCI   2
ASHLAND        CLOUDY    19   8  62 NW15G23   29.79F WCI   5
HAYWARD        CLOUDY    17   5  59 NW12G20   29.78S WCI   4
SIREN          MOCLDY    17   6  63 N14G23    29.86S WCI   2
CUMBERLAND     CLOUDY    18   5  57 N20G26    29.79S WCI   1
RICE LAKE      CLOUDY    17   6  60 NW17G26   29.81S WCI   2
CHETEK         CLOUDY    17   8  66 NW6       29.79S WCI   9
LADYSMITH      CLOUDY    17  11  75 NW15G23   29.75F WCI   3
EAU CLAIRE     FLURRIES  18  10  71 NW8       29.79S WCI   8
MENOMONIE      MOCLDY    19   8  62 NW13      29.81S WCI   7
NEW RICHMOND   CLEAR     18   7  61 N18G29    29.85S WCI   2
OSCEOLA        CLOUDY    19   8  61 NW16G28   29.90S WCI   5
$$

WIZ003>005-009-010-017-018-250800-
NORTH CENTRAL WISCONSIN

CITY           SKY/WX    TMP DP  RH WIND       PRES   REMARKS
MANITOWISH WTR LGT SNOW  14  12  92 N7        29.64F WCI   4
ARBOR VITAE    LGT SNOW  17  12  82 N13G20      N/A  WCI   3
WOODRUFF       LGT SNOW  17  12  82 N13G20      N/A  WCI   3
RHINELANDER    LGT SNOW  17  12  80 NW10      29.62F WCI   5
EAGLE RIVER    LGT SNOW  15  10  80 N13       29.60F WCI   2
LAND O LAKES   LGT SNOW  16  12  86 N15G24    29.62F WCI   1
PHILLIPS       LGT SNOW  14  11  88 NW8       29.68S WCI   3
TOMAHAWK       LGT SNOW  16  11  83 NW8       29.65F WCI   5
MEDFORD        LGT SNOW  15  11  83 NW15G21   29.66F WCI   0
MERRILL        NOT AVBL
$$

WIZ029-030-035-036-043>047-250800-
CENTRAL WISCONSIN

CITY           SKY/WX    TMP DP  RH WIND       PRES   REMARKS
WAUSAU         CLOUDY    18  12  77 NW12G20   29.62F WCI   5
MOSINEE        FLURRIES  18  16  93 NW15G23   29.64F WCI   3
MARSHFIELD     LGT SNOW  17  11  77 NW20      29.66S WCI   1
STEVENS POINT  LGT SNOW  17  13  86 NW9G17    29.64S WCI   5
WAUPACA        LGT SNOW  22  17  79 NW8       29.63S WCI  13
WAUTOMA        LGT SNOW  20  17  88 NW9       29.65S FOG     WCI   9
WISC RAPIDS    LGT SNOW  19  15  84 NW16G22   29.67S FOG     WCI   4
CAMP DOUGLAS   FLURRIES  18  13  82 NW9       29.70S WCI   7
$$

WIZ011>013-019>022-031-037>040-048>050-250800-
NORTHEAST WISCONSIN

CITY           SKY/WX    TMP DP  RH WIND       PRES   REMARKS
ANTIGO         LGT SNOW  16  12  83 N20       29.58F WCI  -1
SHAWANO        FLURRIES  23  17  78 CALM      29.60F
OCONTO         CLOUDY    21  17  85 N8        29.56F WCI  12
STURGEON BAY   MIX PCPN  23  21  92 MISG      29.53F FOG
GREEN BAY      CLOUDY    22  20  92 NW12      29.57F WCI  10
MANITOWOC      MIX PCPN  23  21  92 NW16G22   29.56S WCI  10
APPLETON       LGT SNOW  21  18  86 NW8       29.58R WCI  12
CLINTONVILLE   FLURRIES  21  16  79 NW10      29.61S WCI  10
OSHKOSH        LGT SNOW  21  17  84 NW14G21   29.60S FOG     WCI   8
$$

WIZ032>034-041-042-053>061-250800-
SOUTHWEST WISCONSIN

CITY           SKY/WX    TMP DP  RH WIND       PRES   REMARKS
LA CROSSE      FLURRIES  21  13  71 NW16      29.80S WCI   7
SPARTA         LGT SNOW  19  15  85 NW13G21   29.76R WCI   5
VIROQUA        CLOUDY    17  15  91 NW13      29.72R VSB 1   WCI   4
BOSCOBEL       LGT SNOW  21  15  78 NW10      29.76R WCI  10
PRAIRIE DU CHI LGT SNOW  21  15  78 NW14      29.79R WCI   8
PLATTEVILLE    CLOUDY    21  20  97 NW9       29.72R WCI  10
$$

WIZ056-057-062-063-064-067-068-250800-
SOUTH CENTRAL WISCONSIN

CITY           SKY/WX    TMP DP  RH WIND       PRES   REMARKS
REEDSBURG      LGT SNOW  19  17  94 NW7       29.69S WCI  10
BARABOO/DELLS  LGT SNOW  19  17  89 NW9       29.67S VSB 1   WCI   8
LONE ROCK      LGT SNOW  20  15  81 W14       29.73R VSB 1   WCI   7
MINERAL POINT  LGT SNOW  21  21 100 CALM      29.69R
MADISON        LGT SNOW  21  17  84 NW13      29.66R FOG     WCI   9
MIDDLETON      CLOUDY    23  20  90 NW7       29.67R WCI  14
WATERTOWN      LGT SNOW  22  21  96 NW13      29.62R WCI  10
MONROE         LGT SNOW  23  21  93 NW13G18   29.65S WCI  11
JANESVILLE     LGT SNOW  27  27 100 NW12      29.64R WCI  16
$$

WIZ051-052-058>065-066-070>072-250800-
SOUTHEAST WISCONSIN

CITY           SKY/WX    TMP DP  RH WIND       PRES   REMARKS
MILWAUKEE      FLURRIES  28  23  81 NW13      29.58F WCI  17
WAUKESHA       LGT SNOW  23  21  93 NW14G22   29.60S WCI  11
MILWAUKEE/TIMM LGT SNOW  27  21  80 NW12G17   29.60S WCI  16
RACINE         CLOUDY    28  23  81 NW8       29.60F WCI  20
KENOSHA        CLOUDY    28  24  85 NW8       29.59F WCI  20
FOND DU LAC    LGT SNOW  22  17  81 NW16      29.60S WCI   8
SHEBOYGAN      LGT SNOW  23  20  88 NW13      29.57R FOG     WCI  11
WEST BEND      LGT SNOW  25  23  93 NW3       29.58F
JUNEAU         LGT SNOW  20  18  89 NW7       29.62F WCI  12
$$

LSZ147-162-250800-
LAKE SUPERIOR

STATION/POSITION TIME  TEMP    WIND        PRES    WAVE
                       AIR SEA DIR/SP/G            HT/PER
                 (UTC) (F)     (DEG/KT/KT) (MB)    (FT/S)
DEVILS ISLAND    0700   18     340/ 20/ 24 1010.2F
PORT WING        0640   19     330/ 19/ 23 1010.8F
SAXON HARBOR     0630   22     350/ 18/ 21 1008.1F
$$

LMZ867-665-643>646-250800-
LAKE MICHIGAN

STATION/POSITION TIME  TEMP    WIND        PRES    WAVE
                       AIR SEA DIR/SP/G            HT/PER
                 (UTC) (F)     (DEG/KT/KT) (MB)    (FT/S)
CHAMBERS ISLAND  0640   24     310/  3/  4 1000.3S
NORTHPORT PIER   0640   27     330/  4/  5  999.7F
SISTER BAY       0635   26        CALM       N/A
KEWAUNEE LAKESHO 0648          330/ 10/ 16 1000.1F
SHEBOYGAN LAKESH 0700   24     300/  6/  8 1001.7R
PORT WASHINGTON  0640   25     310/  9/ 14 1003.0S
MILWAUKEE LAKESH 0650   27     310/ 11/ 12   N/A
KENOSHA   LAKESH 0700   29     300/ 10/ 15 1002.4
$$

TC  - TEMPERATURE IN CELSIUS
VSB - VISIBILITY IN STATUTE MILES
WCI - WIND CHILL INDEX
HX  - HEAT INDEX





USA.gov is the U.S. government's official web portal to all federal, state and local government web resources and services.